| time (UTC) | temp F | wind direction | speed MPH | gust MPH | rain 1hr in | rain 24hr in | rain mn in | humidity % | barometer mb |
| 20260906115511 | 73 | 360 | 1.0 | 4.0 | 0.00 | 0.03 | 0.00 | 94 | 1013.0 |
| 20260906115012 | 73 | 360 | 0.0 | 5.0 | 0.00 | 0.03 | 0.00 | 94 | 1012.9 |
| 20260906114518 | 72 | 360 | 1.0 | 5.0 | 0.00 | 0.03 | 0.00 | 94 | 1012.9 |
| 20260906114007 | 72 | 360 | 0.0 | 4.0 | 0.00 | 0.03 | 0.00 | 94 | 1012.8 |
| 20260906113512 | 72 | 360 | 0.0 | 4.0 | 0.00 | 0.03 | 0.00 | 94 | 1012.7 |
| 20260906113024 | 72 | 360 | 0.0 | 3.0 | 0.00 | 0.03 | 0.00 | 94 | 1012.8 |
| 20260906112506 | 72 | 360 | 1.0 | 3.0 | 0.00 | 0.03 | 0.00 | 94 | 1012.7 |
| 20260906112017 | 72 | 360 | 0.0 | 2.0 | 0.00 | 0.03 | 0.00 | 95 | 1012.6 |
| 20260906111527 | 72 | 360 | 0.0 | 4.0 | 0.00 | 0.03 | 0.00 | 95 | 1012.5 |
| 20260906111004 | 72 | 360 | 1.0 | 4.0 | 0.00 | 0.03 | 0.00 | 95 | 1012.5 |
| 20260906110516 | 72 | 360 | 0.0 | 4.0 | 0.00 | 0.03 | 0.00 | 95 | 1012.3 |
| 20260906110024 | 72 | 360 | 2.0 | 6.0 | 0.00 | 0.03 | 0.00 | 95 | 1012.2 |
| 20260906105507 | 72 | 360 | 0.0 | 6.0 | 0.00 | 0.03 | 0.00 | 95 | 1012.1 |
| 20260906105007 | 72 | 360 | 1.0 | 3.0 | 0.00 | 0.03 | 0.00 | 95 | 1012.2 |
| 20260906104518 | 73 | 360 | 0.0 | 3.0 | 0.00 | 0.03 | 0.00 | 95 | 1012.0 |
| 20260906104010 | 73 | 360 | 0.0 | 3.0 | 0.00 | 0.03 | 0.00 | 96 | 1012.0 |
| 20260906103512 | 73 | 360 | 0.0 | 3.0 | 0.00 | 0.03 | 0.00 | 96 | 1012.0 |
| 20260906103023 | 72 | 360 | 0.0 | 3.0 | 0.00 | 0.03 | 0.00 | 96 | 1012.0 |
| 20260906102514 | 72 | 360 | 0.0 | 3.0 | 0.00 | 0.03 | 0.00 | 96 | 1012.0 |
| 20260906102014 | 72 | 360 | 0.0 | 2.0 | 0.00 | 0.03 | 0.00 | 95 | 1012.0 |
| 20260906101529 | 72 | 360 | 0.0 | 2.0 | 0.00 | 0.03 | 0.00 | 95 | 1011.9 |
| 20260906101015 | 72 | 360 | 0.0 | 2.0 | 0.00 | 0.03 | 0.00 | 95 | 1011.8 |
| 20260906100514 | 72 | 360 | 0.0 | 4.0 | 0.00 | 0.03 | 0.00 | 95 | 1011.7 |
| 20260906100029 | 72 | 360 | 0.0 | 4.0 | 0.00 | 0.03 | 0.00 | 95 | 1011.7 |
| 20260906095516 | 72 | 360 | 1.0 | 4.0 | 0.00 | 0.03 | 0.00 | 95 | 1011.7 |
| 20260906095016 | 72 | 360 | 1.0 | 4.0 | 0.00 | 0.03 | 0.00 | 95 | 1011.6 |
| 20260906094515 | 72 | 360 | 0.0 | 2.0 | 0.00 | 0.03 | 0.00 | 95 | 1011.5 |
| 20260906094008 | 72 | 360 | 0.0 | 3.0 | 0.00 | 0.03 | 0.00 | 95 | 1011.5 |
| 20260906093510 | 72 | 360 | 0.0 | 3.0 | 0.00 | 0.03 | 0.00 | 95 | 1011.4 |
| 20260906093035 | 72 | 360 | 0.0 | 1.0 | 0.00 | 0.03 | 0.00 | 95 | 1011.3 |
| 20260906092511 | 72 | 360 | 0.0 | 2.0 | 0.00 | 0.03 | 0.00 | 96 | 1011.3 |
| 20260906092020 | 72 | 360 | 0.0 | 2.0 | 0.00 | 0.03 | 0.00 | 96 | 1011.4 |
| 20260906091524 | 72 | 360 | 0.0 | 1.0 | 0.00 | 0.03 | 0.00 | 96 | 1011.3 |
| 20260906091013 | 72 | 360 | 0.0 | 1.0 | 0.00 | 0.03 | 0.00 | 95 | 1011.3 |
| 20260906090516 | 72 | 360 | 0.0 | 2.0 | 0.00 | 0.03 | 0.00 | 95 | 1011.3 |
| 20260906090039 | 72 | 360 | 0.0 | 2.0 | 0.00 | 0.03 | 0.00 | 96 | 1011.2 |
| 20260906085514 | 71 | 360 | 0.0 | 1.0 | 0.00 | 0.03 | 0.00 | 96 | 1011.1 |
| 20260906085015 | 71 | 360 | 0.0 | 1.0 | 0.00 | 0.03 | 0.00 | 96 | 1011.1 |
| 20260906084523 | 71 | 360 | 0.0 | 1.0 | 0.00 | 0.03 | 0.00 | 96 | 1011.0 |
| 20260906084018 | 71 | 360 | 0.0 | 2.0 | 0.00 | 0.03 | 0.00 | 95 | 1011.0 |
| 20260906083514 | 71 | 360 | 0.0 | 2.0 | 0.00 | 0.03 | 0.00 | 95 | 1011.0 |
| 20260906083023 | 71 | 360 | 0.0 | 2.0 | 0.00 | 0.03 | 0.00 | 95 | 1011.0 |
| 20260906082511 | 71 | 360 | 0.0 | 2.0 | 0.00 | 0.03 | 0.00 | 95 | 1011.0 |
| 20260906082014 | 71 | 360 | 0.0 | 0.0 | 0.00 | 0.03 | 0.00 | 95 | 1010.9 |
| 20260906081524 | 71 | 360 | 0.0 | 0.0 | 0.00 | 0.03 | 0.00 | 95 | 1010.9 |
| 20260906081012 | 71 | 360 | 0.0 | 0.0 | 0.00 | 0.03 | 0.00 | 95 | 1010.8 |
| 20260906080514 | 71 | 360 | 0.0 | 0.0 | 0.00 | 0.03 | 0.00 | 95 | 1010.6 |
| 20260906080023 | 71 | 360 | 0.0 | 0.0 | 0.00 | 0.03 | 0.00 | 95 | 1010.6 |
| 20260906075516 | 71 | 360 | 0.0 | 0.0 | 0.00 | 0.03 | 0.00 | 95 | 1010.7 |
| 20260906075014 | 71 | 360 | 0.0 | 0.0 | 0.00 | 0.03 | 0.00 | 95 | 1010.7 |
| 20260906074524 | 71 | 360 | 0.0 | 0.0 | 0.00 | 0.03 | 0.00 | 95 | 1010.5 |
| 20260906074018 | 71 | 360 | 0.0 | 0.0 | 0.00 | 0.03 | 0.00 | 95 | 1010.4 |
| 20260906073514 | 71 | 360 | 0.0 | 0.0 | 0.00 | 0.03 | 0.00 | 95 | 1010.4 |
| 20260906073024 | 71 | 360 | 0.0 | 0.0 | 0.00 | 0.03 | 0.00 | 95 | 1010.5 |
| 20260906072517 | 71 | 360 | 0.0 | 0.0 | 0.00 | 0.03 | 0.00 | 95 | 1010.6 |
| 20260906072014 | 71 | 360 | 0.0 | 0.0 | 0.00 | 0.03 | 0.00 | 95 | 1010.6 |
| 20260906071521 | 71 | 360 | 0.0 | 0.0 | 0.00 | 0.03 | 0.00 | 95 | 1010.7 |
| 20260906071008 | 71 | 360 | 0.0 | 0.0 | 0.00 | 0.03 | 0.00 | 95 | 1010.6 |
| 20260906070514 | 71 | 360 | 0.0 | 0.0 | 0.00 | 0.03 | 0.00 | 95 | 1010.5 |
| 20260906070034 | 71 | 360 | 0.0 | 0.0 | 0.00 | 0.03 | 0.00 | 95 | 1010.5 |
| 20260906065510 | 71 | 360 | 0.0 | 0.0 | 0.00 | 0.03 | 0.00 | 95 | 1010.5 |
| 20260906065014 | 71 | 360 | 0.0 | 0.0 | 0.00 | 0.03 | 0.00 | 95 | 1010.5 |
| 20260906064524 | 71 | 360 | 0.0 | 0.0 | 0.00 | 0.03 | 0.00 | 95 | 1010.7 |
| 20260906064004 | 72 | 360 | 0.0 | 0.0 | 0.00 | 0.03 | 0.00 | 94 | 1010.7 |
| 20260906063505 | 72 | 360 | 0.0 | 0.0 | 0.00 | 0.03 | 0.00 | 95 | 1010.7 |
| 20260906063021 | 72 | 360 | 0.0 | 0.0 | 0.00 | 0.03 | 0.00 | 94 | 1010.7 |
| 20260906062508 | 72 | 360 | 0.0 | 0.0 | 0.00 | 0.03 | 0.00 | 94 | 1010.8 |
| 20260906062006 | 72 | 360 | 0.0 | 0.0 | 0.00 | 0.03 | 0.00 | 94 | 1010.8 |
| 20260906061521 | 72 | 360 | 0.0 | 0.0 | 0.00 | 0.03 | 0.00 | 94 | 1010.8 |
| 20260906061012 | 72 | 360 | 0.0 | 0.0 | 0.00 | 0.03 | 0.00 | 94 | 1010.9 |
| 20260906060512 | 72 | 360 | 0.0 | 0.0 | 0.00 | 0.03 | 0.00 | 94 | 1011.0 |
| 20260906060026 | 72 | 360 | 0.0 | 0.0 | 0.00 | 0.03 | 0.00 | 94 | 1011.1 |
| 20260906055508 | 72 | 360 | 0.0 | 0.0 | 0.00 | 0.03 | 0.00 | 94 | 1011.2 |
| 20260906055013 | 72 | 360 | 0.0 | 0.0 | 0.00 | 0.03 | 0.00 | 94 | 1011.2 |
| 20260906054524 | 72 | 360 | 0.0 | 0.0 | 0.00 | 0.03 | 0.00 | 94 | 1011.2 |
| 20260906054004 | 72 | 360 | 0.0 | 0.0 | 0.00 | 0.03 | 0.00 | 94 | 1011.3 |
| 20260906053514 | 72 | 360 | 0.0 | 0.0 | 0.00 | 0.03 | 0.00 | 94 | 1011.3 |
| 20260906053024 | 72 | 360 | 0.0 | 0.0 | 0.00 | 0.03 | 0.00 | 94 | 1011.3 |
| 20260906052506 | 72 | 360 | 0.0 | 0.0 | 0.00 | 0.03 | 0.00 | 94 | 1011.4 |
| 20260906052008 | 72 | 360 | 0.0 | 0.0 | 0.00 | 0.03 | 0.00 | 94 | 1011.4 |
| 20260906051536 | 72 | 360 | 0.0 | 0.0 | 0.00 | 0.03 | 0.00 | 94 | 1011.5 |
| 20260906051016 | 72 | 360 | 0.0 | 0.0 | 0.00 | 0.03 | 0.00 | 94 | 1011.5 |
| 20260906050509 | 72 | 360 | 0.0 | 0.0 | 0.00 | 0.03 | 0.00 | 94 | 1011.6 |
| 20260906050023 | 73 | 360 | 0.0 | 0.0 | 0.00 | 0.03 | 0.00 | 94 | 1011.5 |
| 20260906045507 | 73 | 360 | 0.0 | 0.0 | 0.00 | 0.03 | 0.00 | 94 | 1011.6 |
| 20260906045012 | 73 | 360 | 0.0 | 0.0 | 0.00 | 0.03 | 0.00 | 94 | 1011.7 |
| 20260906044521 | 73 | 360 | 0.0 | 0.0 | 0.00 | 0.03 | 0.00 | 94 | 1011.7 |
| 20260906044008 | 73 | 360 | 0.0 | 1.0 | 0.00 | 0.03 | 0.00 | 94 | 1011.7 |
| 20260906043517 | 73 | 82 | 0.0 | 1.0 | 0.00 | 0.03 | 0.00 | 93 | 1011.8 |
| 20260906043023 | 73 | 82 | 0.0 | 2.0 | 0.00 | 0.03 | 0.00 | 93 | 1011.8 |
| 20260906042507 | 73 | 82 | 0.0 | 2.0 | 0.00 | 0.03 | 0.00 | 93 | 1011.8 |
| 20260906042016 | 73 | 82 | 0.0 | 1.0 | 0.00 | 0.03 | 0.00 | 93 | 1011.7 |
| 20260906041514 | 73 | 82 | 0.0 | 1.0 | 0.00 | 0.03 | 0.00 | 93 | 1011.8 |
| 20260906041011 | 73 | 82 | 0.0 | 2.0 | 0.00 | 0.03 | 0.00 | 93 | 1011.8 |
| 20260906040508 | 74 | 82 | 0.0 | 2.0 | 0.00 | 0.03 | 0.00 | 93 | 1011.8 |
| 20260906040032 | 74 | 19 | 0.0 | 1.0 | 0.00 | 0.03 | 0.00 | 93 | 1011.9 |
| 20260906035508 | 74 | 19 | 0.0 | 1.0 | 0.00 | 0.03 | 0.03 | 93 | 1011.9 |
| 20260906035012 | 74 | 19 | 0.0 | 1.0 | 0.00 | 0.03 | 0.03 | 93 | 1011.9 |
| 20260906034533 | 74 | 19 | 0.0 | 1.0 | 0.00 | 0.03 | 0.03 | 93 | 1011.9 |
| 20260906034010 | 74 | 19 | 0.0 | 2.0 | 0.00 | 0.03 | 0.03 | 93 | 1012.0 |
| 20260906033518 | 74 | 19 | 0.0 | 2.0 | 0.00 | 0.03 | 0.03 | 93 | 1012.1 |
| 20260906033023 | 74 | 19 | 0.0 | 3.0 | 0.00 | 0.03 | 0.03 | 93 | 1012.0 |
| 20260906032515 | 74 | 19 | 0.0 | 3.0 | 0.00 | 0.03 | 0.03 | 93 | 1012.1 |
| 20260906032016 | 74 | 10 | 1.0 | 3.0 | 0.00 | 0.03 | 0.03 | 93 | 1012.0 |
| 20260906031536 | 74 | 350 | 0.0 | 3.0 | 0.00 | 0.03 | 0.03 | 93 | 1012.0 |
| 20260906031016 | 74 | 39 | 0.0 | 3.0 | 0.00 | 0.03 | 0.03 | 93 | 1011.9 |
| 20260906030517 | 74 | 349 | 0.0 | 2.0 | 0.00 | 0.03 | 0.03 | 93 | 1012.0 |
| 20260906030017 | 74 | 325 | 1.0 | 2.0 | 0.00 | 0.03 | 0.03 | 93 | 1011.9 |
| 20260906025511 | 74 | 19 | 0.0 | 2.0 | 0.00 | 0.03 | 0.03 | 93 | 1011.8 |
| 20260906025012 | 74 | 19 | 0.0 | 2.0 | 0.00 | 0.03 | 0.03 | 93 | 1011.8 |
| 20260906024525 | 74 | 19 | 0.0 | 0.0 | 0.00 | 0.03 | 0.03 | 93 | 1011.7 |
| 20260906024014 | 74 | 174 | 0.0 | 0.0 | 0.00 | 0.03 | 0.03 | 93 | 1011.8 |
| 20260906023515 | 74 | 174 | 0.0 | 0.0 | 0.00 | 0.03 | 0.03 | 93 | 1012.0 |
| 20260906023024 | 74 | 174 | 0.0 | 0.0 | 0.00 | 0.03 | 0.03 | 93 | 1012.0 |
| 20260906022518 | 74 | 174 | 0.0 | 0.0 | 0.00 | 0.03 | 0.03 | 93 | 1011.9 |
| 20260906022017 | 74 | 174 | 0.0 | 0.0 | 0.00 | 0.03 | 0.03 | 93 | 1011.9 |
| 20260906021527 | 74 | 174 | 0.0 | 0.0 | 0.00 | 0.03 | 0.03 | 93 | 1011.7 |
| 20260906021017 | 74 | 174 | 0.0 | 0.0 | 0.00 | 0.03 | 0.03 | 93 | 1011.5 |
| 20260906020517 | 74 | 174 | 0.0 | 0.0 | 0.00 | 0.03 | 0.03 | 93 | 1011.4 |
| 20260906020027 | 74 | 174 | 0.0 | 0.0 | 0.00 | 0.03 | 0.03 | 93 | 1011.4 |
| 20260906015516 | 75 | 174 | 0.0 | 0.0 | 0.00 | 0.03 | 0.03 | 93 | 1011.4 |
| 20260906015010 | 75 | 174 | 0.0 | 0.0 | 0.00 | 0.03 | 0.03 | 93 | 1011.5 |
| 20260906014527 | 75 | 174 | 0.0 | 0.0 | 0.00 | 0.03 | 0.03 | 93 | 1011.5 |
| 20260906014011 | 75 | 174 | 0.0 | 0.0 | 0.00 | 0.03 | 0.03 | 93 | 1011.5 |
| 20260906013514 | 75 | 174 | 0.0 | 0.0 | 0.00 | 0.03 | 0.03 | 93 | 1011.5 |
| 20260906013028 | 75 | 174 | 0.0 | 0.0 | 0.00 | 0.03 | 0.03 | 93 | 1011.5 |
| 20260906012515 | 75 | 174 | 0.0 | 0.0 | 0.00 | 0.03 | 0.03 | 92 | 1011.3 |
| 20260906012004 | 75 | 174 | 0.0 | 0.0 | 0.00 | 0.03 | 0.03 | 92 | 1011.3 |
| 20260906011509 | 75 | 174 | 0.0 | 0.0 | 0.00 | 0.03 | 0.03 | 92 | 1011.3 |
| 20260906011007 | 75 | 174 | 0.0 | 0.0 | 0.00 | 0.03 | 0.03 | 92 | 1011.3 |
| 20260906010504 | 75 | 174 | 0.0 | 0.0 | 0.00 | 0.03 | 0.03 | 92 | 1011.2 |
| 20260906010010 | 75 | 174 | 0.0 | 0.0 | 0.00 | 0.03 | 0.03 | 92 | 1011.3 |
| 20260906005505 | 75 | 174 | 0.0 | 0.0 | 0.00 | 0.03 | 0.03 | 92 | 1011.3 |
| 20260906005004 | 75 | 174 | 0.0 | 0.0 | 0.00 | 0.03 | 0.03 | 92 | 1011.3 |
| 20260906004521 | 75 | 174 | 0.0 | 0.0 | 0.00 | 0.03 | 0.03 | 92 | 1011.1 |
| 20260906004008 | 75 | 174 | 0.0 | 0.0 | 0.00 | 0.03 | 0.03 | 92 | 1011.1 |
| 20260906003504 | 75 | 174 | 0.0 | 0.0 | 0.00 | 0.03 | 0.03 | 91 | 1011.2 |
| 20260906003027 | 76 | 174 | 0.0 | 0.0 | 0.00 | 0.03 | 0.03 | 91 | 1011.3 |
| 20260906002501 | 76 | 174 | 0.0 | 0.0 | 0.00 | 0.03 | 0.03 | 91 | 1011.2 |
| 20260906002002 | 76 | 174 | 0.0 | 0.0 | 0.00 | 0.03 | 0.03 | 91 | 1011.1 |
| 20260906001510 | 76 | 174 | 0.0 | 0.0 | 0.00 | 0.03 | 0.03 | 91 | 1011.0 |
| 20260906001001 | 76 | 174 | 0.0 | 0.0 | 0.00 | 0.03 | 0.03 | 91 | 1010.9 |
| 20260906000501 | 76 | 174 | 0.0 | 0.0 | 0.00 | 0.03 | 0.03 | 91 | 1010.8 |
| 20260906000008 | 76 | 174 | 0.0 | 0.0 | 0.00 | 0.03 | 0.03 | 90 | 1010.8 |
| 20260905235506 | 76 | 174 | 0.0 | 0.0 | 0.00 | 0.03 | 0.03 | 91 | 1010.7 |
| 20260905235004 | 76 | 174 | 0.0 | 0.0 | 0.00 | 0.03 | 0.03 | 90 | 1010.7 |
| 20260905234518 | 76 | 174 | 0.0 | 0.0 | 0.00 | 0.03 | 0.03 | 90 | 1010.6 |
| 20260905234006 | 76 | 174 | 0.0 | 0.0 | 0.00 | 0.03 | 0.03 | 90 | 1010.5 |
| 20260905233502 | 76 | 174 | 0.0 | 0.0 | 0.00 | 0.03 | 0.03 | 90 | 1010.4 |
| 20260905233023 | 76 | 174 | 0.0 | 0.0 | 0.00 | 0.03 | 0.03 | 89 | 1010.3 |
| 20260905232506 | 76 | 174 | 0.0 | 0.0 | 0.00 | 0.03 | 0.03 | 90 | 1010.2 |
| 20260905232003 | 77 | 174 | 0.0 | 0.0 | 0.00 | 0.03 | 0.03 | 90 | 1010.1 |
| 20260905231530 | 77 | 174 | 0.0 | 0.0 | 0.00 | 0.03 | 0.03 | 90 | 1010.1 |
| 20260905231003 | 77 | 174 | 0.0 | 0.0 | 0.00 | 0.03 | 0.03 | 90 | 1010.0 |
| 20260905230503 | 77 | 174 | 0.0 | 0.0 | 0.00 | 0.03 | 0.03 | 90 | 1009.7 |
| 20260905230009 | 77 | 174 | 0.0 | 0.0 | 0.00 | 0.03 | 0.03 | 89 | 1009.5 |
| 20260905225502 | 77 | 174 | 0.0 | 0.0 | 0.00 | 0.03 | 0.03 | 90 | 1009.4 |
| 20260905225001 | 76 | 174 | 0.0 | 0.0 | 0.00 | 0.03 | 0.03 | 91 | 1009.5 |
| 20260905224513 | 76 | 174 | 0.0 | 0.0 | 0.00 | 0.03 | 0.03 | 91 | 1009.3 |
| 20260905224008 | 76 | 174 | 0.0 | 0.0 | 0.00 | 0.03 | 0.03 | 92 | 1009.2 |
| 20260905223502 | 76 | 174 | 0.0 | 0.0 | 0.00 | 0.03 | 0.03 | 91 | 1009.3 |
| 20260905223020 | 76 | 174 | 0.0 | 0.0 | 0.01 | 0.03 | 0.03 | 91 | 1009.5 |
| 20260905222509 | 76 | 174 | 0.0 | 0.0 | 0.01 | 0.03 | 0.03 | 91 | 1009.5 |
| 20260905222003 | 76 | 174 | 0.0 | 0.0 | 0.01 | 0.03 | 0.03 | 91 | 1009.8 |
| 20260905221527 | 76 | 183 | 0.0 | 0.0 | 0.02 | 0.03 | 0.03 | 91 | 1009.8 |
| 20260905221008 | 76 | 183 | 0.0 | 2.0 | 0.02 | 0.03 | 0.03 | 91 | 1009.9 |
| 20260905220502 | 76 | 183 | 0.0 | 2.0 | 0.02 | 0.03 | 0.03 | 90 | 1010.1 |
| 20260905220008 | 76 | 130 | 0.0 | 2.0 | 0.03 | 0.03 | 0.03 | 90 | 1010.2 |
| 20260905215502 | 76 | 58 | 0.0 | 0.0 | 0.03 | 0.03 | 0.03 | 89 | 1010.1 |
| 20260905215001 | 76 | 58 | 0.0 | 0.0 | 0.03 | 0.03 | 0.03 | 89 | 1010.1 |
| 20260905214510 | 76 | 58 | 0.0 | 0.0 | 0.03 | 0.03 | 0.03 | 88 | 1009.9 |
| 20260905214006 | 77 | 58 | 0.0 | 1.0 | 0.03 | 0.03 | 0.03 | 87 | 1009.8 |
| 20260905213503 | 78 | 58 | 0.0 | 3.0 | 0.03 | 0.03 | 0.03 | 84 | 1010.0 |
| 20260905213018 | 78 | 58 | 0.0 | 3.0 | 0.02 | 0.02 | 0.02 | 83 | 1009.9 |
| 20260905212509 | 79 | 70 | 0.0 | 2.0 | 0.02 | 0.02 | 0.02 | 81 | 1009.9 |
| 20260905212002 | 79 | 70 | 0.0 | 2.0 | 0.02 | 0.02 | 0.02 | 80 | 1009.7 |
| 20260905211525 | 80 | 122 | 0.0 | 2.0 | 0.01 | 0.01 | 0.01 | 78 | 1009.9 |
| 20260905211007 | 81 | 98 | 0.0 | 3.0 | 0.01 | 0.01 | 0.01 | 76 | 1010.1 |
| 20260905210502 | 82 | 139 | 0.0 | 4.0 | 0.01 | 0.01 | 0.01 | 72 | 1010.2 |
| 20260905210043 | 82 | 286 | 0.0 | 5.0 | 0.00 | 0.00 | 0.00 | 69 | 1010.0 |
| 20260905205506 | 83 | 173 | 1.0 | 8.0 | 0.00 | 0.00 | 0.00 | 67 | 1009.7 |
| 20260905205004 | 83 | 173 | 1.0 | 8.0 | 0.00 | 0.00 | 0.00 | 64 | 1009.7 |
| 20260905204508 | 83 | 211 | 2.0 | 5.0 | 0.00 | 0.00 | 0.00 | 65 | 1009.7 |
| 20260905204003 | 84 | 245 | 0.0 | 5.0 | 0.00 | 0.00 | 0.00 | 64 | 1009.7 |
| 20260905203503 | 84 | 188 | 1.0 | 6.0 | 0.00 | 0.00 | 0.00 | 63 | 1009.7 |
| 20260905203013 | 85 | 167 | 2.0 | 7.0 | 0.00 | 0.00 | 0.00 | 63 | 1009.8 |
| 20260905202508 | 85 | 304 | 3.0 | 7.0 | 0.00 | 0.00 | 0.00 | 62 | 1009.7 |
| 20260905202003 | 86 | 300 | 0.0 | 11.0 | 0.00 | 0.00 | 0.00 | 62 | 1009.8 |
| 20260905201521 | 87 | 203 | 3.0 | 11.0 | 0.00 | 0.00 | 0.00 | 60 | 1010.1 |
| 20260905201011 | 88 | 150 | 4.0 | 10.0 | 0.00 | 0.00 | 0.00 | 57 | 1010.0 |
| 20260905200504 | 90 | 217 | 2.0 | 12.0 | 0.00 | 0.00 | 0.00 | 56 | 1009.5 |
| 20260905200028 | 92 | 193 | 2.0 | 12.0 | 0.00 | 0.00 | 0.00 | 54 | 1009.4 |
| 20260905195508 | 94 | 142 | 6.0 | 11.0 | 0.00 | 0.00 | 0.00 | 51 | 1009.5 |
| 20260905195017 | 95 | 175 | 2.0 | 6.0 | 0.00 | 0.00 | 0.00 | 50 | 1009.2 |
| 20260905194527 | 96 | 205 | 1.0 | 5.0 | 0.00 | 0.00 | 0.00 | 47 | 1009.0 |
| 20260905194008 | 97 | 159 | 0.0 | 4.0 | 0.00 | 0.00 | 0.00 | 48 | 1009.2 |
| 20260905193503 | 97 | 206 | 1.0 | 4.0 | 0.00 | 0.00 | 0.00 | 48 | 1009.2 |
| 20260905193012 | 97 | 36 | 1.0 | 4.0 | 0.00 | 0.00 | 0.00 | 48 | 1009.1 |
| 20260905192506 | 97 | 202 | 1.0 | 3.0 | 0.00 | 0.00 | 0.00 | 48 | 1009.0 |
| 20260905192017 | 97 | 206 | 0.0 | 4.0 | 0.00 | 0.00 | 0.00 | 47 | 1009.0 |
| 20260905191530 | 97 | 184 | 1.0 | 4.0 | 0.00 | 0.00 | 0.00 | 46 | 1008.8 |
| 20260905191010 | 97 | 168 | 1.0 | 4.0 | 0.00 | 0.00 | 0.00 | 43 | 1008.9 |
| 20260905190511 | 97 | 244 | 1.0 | 4.0 | 0.00 | 0.00 | 0.00 | 45 | 1009.0 |
| 20260905190025 | 97 | 184 | 0.0 | 4.0 | 0.00 | 0.00 | 0.00 | 42 | 1009.0 |
| 20260905185512 | 97 | 5 | 1.0 | 8.0 | 0.00 | 0.00 | 0.00 | 40 | 1009.0 |
| 20260905185017 | 97 | 116 | 1.0 | 8.0 | 0.00 | 0.00 | 0.00 | 43 | 1008.9 |
| 20260905184530 | 96 | 97 | 0.0 | 6.0 | 0.00 | 0.00 | 0.00 | 46 | 1009.0 |
| 20260905184016 | 95 | 263 | 1.0 | 4.0 | 0.00 | 0.00 | 0.00 | 45 | 1009.0 |
| 20260905183517 | 95 | 239 | 2.0 | 4.0 | 0.00 | 0.00 | 0.00 | 47 | 1009.2 |
| 20260905183031 | 95 | 212 | 1.0 | 5.0 | 0.00 | 0.00 | 0.00 | 47 | 1009.4 |
| 20260905182517 | 95 | 199 | 0.0 | 6.0 | 0.00 | 0.00 | 0.00 | 49 | 1009.6 |
| 20260905182016 | 96 | 215 | 2.0 | 6.0 | 0.00 | 0.00 | 0.00 | 48 | 1009.7 |
| 20260905181530 | 96 | 113 | 0.0 | 7.0 | 0.00 | 0.00 | 0.00 | 48 | 1009.7 |
| 20260905181020 | 97 | 216 | 3.0 | 7.0 | 0.00 | 0.00 | 0.00 | 46 | 1009.8 |
| 20260905180514 | 97 | 194 | 2.0 | 5.0 | 0.00 | 0.00 | 0.00 | 48 | 1009.9 |
| 20260905180027 | 97 | 119 | 2.0 | 4.0 | 0.00 | 0.00 | 0.00 | 47 | 1010.1 |
| 20260905175512 | 97 | 333 | 2.0 | 4.0 | 0.00 | 0.00 | 0.00 | 49 | 1010.2 |
| 20260905175012 | 96 | 313 | 1.0 | 8.0 | 0.00 | 0.00 | 0.00 | 51 | 1010.4 |
| 20260905174529 | 95 | 126 | 1.0 | 8.0 | 0.00 | 0.00 | 0.00 | 51 | 1010.4 |
| 20260905174014 | 95 | 81 | 1.0 | 6.0 | 0.00 | 0.00 | 0.00 | 51 | 1010.7 |
| 20260905173514 | 94 | 111 | 1.0 | 6.0 | 0.00 | 0.00 | 0.00 | 51 | 1010.7 |
| 20260905173028 | 94 | 10 | 2.0 | 6.0 | 0.00 | 0.00 | 0.00 | 52 | 1010.9 |
| 20260905172517 | 94 | 139 | 1.0 | 6.0 | 0.00 | 0.00 | 0.00 | 52 | 1011.0 |
| 20260905172018 | 95 | 218 | 2.0 | 7.0 | 0.00 | 0.00 | 0.00 | 52 | 1011.1 |
| 20260905171536 | 95 | 219 | 3.0 | 7.0 | 0.00 | 0.00 | 0.00 | 53 | 1011.2 |
| 20260905171018 | 95 | 130 | 1.0 | 12.0 | 0.00 | 0.00 | 0.00 | 53 | 1011.3 |
| 20260905170514 | 94 | 127 | 1.0 | 12.0 | 0.00 | 0.00 | 0.00 | 53 | 1011.4 |
| 20260905170029 | 94 | 248 | 3.0 | 12.0 | 0.00 | 0.00 | 0.00 | 53 | 1011.3 |
| 20260905165520 | 94 | 146 | 1.0 | 7.0 | 0.00 | 0.00 | 0.00 | 54 | 1011.3 |
| 20260905165020 | 93 | 109 | 2.0 | 7.0 | 0.00 | 0.00 | 0.00 | 56 | 1011.4 |
| 20260905164526 | 93 | 150 | 3.0 | 7.0 | 0.00 | 0.00 | 0.00 | 56 | 1011.5 |
| 20260905164012 | 93 | 97 | 2.0 | 7.0 | 0.00 | 0.00 | 0.00 | 57 | 1011.5 |
| 20260905163518 | 92 | 207 | 1.0 | 6.0 | 0.00 | 0.00 | 0.00 | 59 | 1011.5 |
| 20260905163034 | 92 | 177 | 3.0 | 6.0 | 0.00 | 0.00 | 0.00 | 57 | 1011.5 |
| 20260905162515 | 92 | 124 | 2.0 | 6.0 | 0.00 | 0.00 | 0.00 | 57 | 1011.7 |
| 20260905162017 | 91 | 268 | 1.0 | 7.0 | 0.00 | 0.00 | 0.00 | 59 | 1011.9 |
| 20260905161528 | 91 | 134 | 1.0 | 7.0 | 0.00 | 0.00 | 0.00 | 60 | 1011.9 |
| 20260905161018 | 91 | 225 | 2.0 | 7.0 | 0.00 | 0.00 | 0.00 | 61 | 1012.0 |
| 20260905160516 | 90 | 175 | 1.0 | 7.0 | 0.00 | 0.00 | 0.00 | 60 | 1012.0 |
| 20260905160030 | 90 | 109 | 3.0 | 7.0 | 0.00 | 0.00 | 0.00 | 61 | 1012.1 |
| 20260905155519 | 90 | 106 | 1.0 | 6.0 | 0.00 | 0.00 | 0.00 | 62 | 1012.3 |
| 20260905155018 | 89 | 187 | 1.0 | 7.0 | 0.00 | 0.00 | 0.00 | 64 | 1012.3 |
| 20260905154528 | 89 | 216 | 2.0 | 7.0 | 0.00 | 0.00 | 0.00 | 63 | 1012.4 |
| 20260905154019 | 89 | 138 | 3.0 | 7.0 | 0.00 | 0.00 | 0.00 | 63 | 1012.6 |
| 20260905153517 | 89 | 200 | 1.0 | 9.0 | 0.00 | 0.00 | 0.00 | 64 | 1012.5 |
| 20260905153029 | 89 | 191 | 1.0 | 9.0 | 0.00 | 0.00 | 0.00 | 65 | 1012.5 |
| 20260905152514 | 88 | 174 | 0.0 | 7.0 | 0.00 | 0.00 | 0.00 | 65 | 1012.4 |
| 20260905152014 | 88 | 128 | 1.0 | 9.0 | 0.00 | 0.00 | 0.00 | 65 | 1012.5 |
| 20260905151529 | 88 | 133 | 0.0 | 9.0 | 0.00 | 0.00 | 0.00 | 67 | 1012.5 |
| 20260905151013 | 88 | 250 | 1.0 | 15.0 | 0.00 | 0.00 | 0.00 | 67 | 1012.6 |
| 20260905150515 | 87 | 57 | 3.0 | 15.0 | 0.00 | 0.00 | 0.00 | 67 | 1012.5 |
| 20260905150039 | 87 | 146 | 1.0 | 4.0 | 0.00 | 0.00 | 0.00 | 67 | 1012.6 |
| 20260905145514 | 87 | 162 | 1.0 | 6.0 | 0.00 | 0.00 | 0.00 | 68 | 1012.6 |
| 20260905145014 | 86 | 232 | 3.0 | 6.0 | 0.00 | 0.00 | 0.00 | 69 | 1012.7 |
| 20260905144535 | 86 | 60 | 1.0 | 4.0 | 0.00 | 0.00 | 0.00 | 69 | 1012.7 |
| 20260905144017 | 86 | 271 | 0.0 | 6.0 | 0.00 | 0.00 | 0.00 | 70 | 1012.6 |
| 20260905143517 | 86 | 90 | 0.0 | 9.0 | 0.00 | 0.00 | 0.00 | 70 | 1012.5 |
| 20260905143029 | 85 | 215 | 1.0 | 9.0 | 0.00 | 0.00 | 0.00 | 71 | 1012.5 |
| 20260905142516 | 85 | 252 | 0.0 | 5.0 | 0.00 | 0.00 | 0.00 | 71 | 1012.7 |
| 20260905142020 | 85 | 180 | 1.0 | 7.0 | 0.00 | 0.00 | 0.00 | 72 | 1012.6 |
| 20260905141527 | 85 | 179 | 2.0 | 7.0 | 0.00 | 0.00 | 0.00 | 73 | 1012.5 |
| 20260905141016 | 84 | 244 | 1.0 | 3.0 | 0.00 | 0.00 | 0.00 | 75 | 1012.5 |
| 20260905140516 | 84 | 208 | 0.0 | 2.0 | 0.00 | 0.00 | 0.00 | 76 | 1012.4 |
| 20260905140030 | 83 | 333 | 0.0 | 4.0 | 0.00 | 0.00 | 0.00 | 76 | 1012.4 |
| 20260905135516 | 83 | 257 | 1.0 | 5.0 | 0.00 | 0.00 | 0.00 | 78 | 1012.4 |
| 20260905135018 | 82 | 259 | 1.0 | 5.0 | 0.00 | 0.00 | 0.00 | 78 | 1012.4 |
| 20260905134531 | 82 | 219 | 1.0 | 4.0 | 0.00 | 0.00 | 0.00 | 79 | 1012.5 |
| 20260905134018 | 81 | 346 | 0.0 | 4.0 | 0.00 | 0.00 | 0.00 | 80 | 1012.6 |
| 20260905133515 | 81 | 5 | 1.0 | 4.0 | 0.00 | 0.00 | 0.00 | 80 | 1012.7 |
| 20260905133035 | 80 | 263 | 1.0 | 4.0 | 0.00 | 0.00 | 0.00 | 82 | 1012.7 |
| 20260905132522 | 80 | 232 | 0.0 | 4.0 | 0.00 | 0.00 | 0.00 | 82 | 1012.6 |
| 20260905132002 | 80 | 284 | 1.0 | 4.0 | 0.00 | 0.00 | 0.00 | 83 | 1012.6 |
| 20260905131536 | 79 | 345 | 1.0 | 4.0 | 0.00 | 0.00 | 0.00 | 83 | 1012.7 |
| 20260905131008 | 79 | 26 | 1.0 | 5.0 | 0.00 | 0.00 | 0.00 | 84 | 1012.7 |
| 20260905130503 | 79 | 313 | 0.0 | 5.0 | 0.00 | 0.00 | 0.00 | 85 | 1012.7 |
| 20260905130030 | 78 | 183 | 0.0 | 5.0 | 0.00 | 0.00 | 0.00 | 86 | 1012.7 |
| 20260905125510 | 78 | 214 | 1.0 | 4.0 | 0.00 | 0.00 | 0.00 | 86 | 1012.8 |
| 20260905125004 | 78 | 266 | 0.0 | 2.0 | 0.00 | 0.00 | 0.00 | 87 | 1012.8 |
| 20260905124514 | 77 | 259 | 0.0 | 5.0 | 0.00 | 0.00 | 0.00 | 87 | 1012.8 |
| 20260905124007 | 77 | 82 | 1.0 | 5.0 | 0.00 | 0.00 | 0.00 | 88 | 1012.8 |
| 20260905123507 | 76 | 317 | 0.0 | 4.0 | 0.00 | 0.00 | 0.00 | 89 | 1012.8 |
| 20260905123029 | 76 | 55 | 1.0 | 4.0 | 0.00 | 0.00 | 0.00 | 90 | 1012.7 |
| 20260905122508 | 76 | 360 | 0.0 | 2.0 | 0.00 | 0.00 | 0.00 | 90 | 1012.9 |
| 20260905122013 | 75 | 360 | 0.0 | 2.0 | 0.00 | 0.00 | 0.00 | 91 | 1012.8 |
| 20260905121526 | 75 | 360 | 0.0 | 2.0 | 0.00 | 0.00 | 0.00 | 92 | 1012.8 |
| 20260905121010 | 74 | 360 | 0.0 | 0.0 | 0.00 | 0.00 | 0.00 | 92 | 1012.9 |
| 20260905120515 | 74 | 360 | 0.0 | 0.0 | 0.00 | 0.00 | 0.00 | 92 | 1012.8 |
| 20260905120034 | 73 | 360 | 0.0 | 0.0 | 0.00 | 0.00 | 0.00 | 91 | 1012.8 |